CAPE
0 0 0 0 0 0 0 0 0 0 38 65 171 259 439 885 750 782 789 489 190 64 148 222 515 645 660 721 831 823 345 216 392 602 667 691 855 1171 1336 1373 1604 2030 1877 1932
0 0 0 0 0 0 0 0 0 0 214 170 196 305 360 616 763 673 749 713 433 161 41 113 261 482 565 661 787 964 759 624 597 726 954 1069 1279 1266 1386 1556 1854 2170 2408 2605
0 0 0 0 0 0 0 0 0 0 15 416 158 255 404 474 599 704 704 587 568 283 62 53 139 253 341 461 831 952 1140 1102 1103 837 1093 1401 1635 1745 1664 1760 1915 2342 2753 2486
0 0 0 0 0 0 0 0 0 0 24 24 132 12 29 216 436 490 644 676 560 528 261 47 26 89 163 272 481 776 1130 1352 1372 1357 903 1253 1247 1152 1257 1766 2086 2365 2361 2132
0 0 0 0 0 0 0 0 0 0 0 0 246 0 0 35 291 551 497 598 579 641 554 378 81 13 63 134 257 390 841 1289 1331 1408 1210 1240 1396 1169 1501 1722 1977 2520 2280 1671
0 0 0 0 0 0 0 0 0 0 0 0 19 0 0 0 0 217 497 440 545 626 672 651 512 209 122 164 311 462 767 1328 1488 1479 1553 1321 1404 1495 1578 1794 1469 1791 1901 1669
0 0 0 0 0 0 0 0 0 0 1 0 1 0 0 0 0 41 279 378 462 552 683 710 701 570 332 288 468 579 753 1309 1511 1421 1415 1387 1568 1886 2031 2009 1749 1945 1769 1546
0 0 0 0 0 0 0 0 0 0 0 0 3 0 0 0 39 36 182 190 278 344 461 657 741 720 622 546 597 689 723 1239 1452 1443 1362 1720 1932 1762 1750 1906 1847 2182 1785 1604
0 0 0 0 0 0 0 0 0 0 0 0 0 0 0 4 95 165 197 276 304 280 340 771 775 819 820 793 784 825 854 1244 1396 1302 1455 1632 2007 1868 1590 1738 2556 2195 1856 1662
0 0 0 0 0 0 0 0 0 0 0 0 0 0 0 0 115 258 293 443 479 360 322 622 815 745 815 823 847 921 920 1114 1316 1222 1472 1686 1879 2074 1921 2285 2451 2079 1781 1641
0 0 0 0 0 0 0 0 0 0 0 0 0 0 0 0 201 316 356 609 553 634 505 476 714 759 707 778 748 832 981 1076 1308 1417 1487 1721 1886 2091 2174 2302 2432 2179 1869 1781
0 0 0 0 0 0 0 0 0 0 0 0 0 0 0 3 262 259 432 626 602 619 750 899 933 909 768 851 864 835 882 1089 1389 1594 1733 1899 1968 2181 2129 2308 2377 2152 2004 1674
0 0 0 0 0 0 0 0 0 0 0 0 0 0 0 0 34 294 447 460 455 622 651 606 627 814 1244 1282 1126 1105 1172 1254 1534 1763 1841 1887 2092 2180 2169 2325 2338 2111 1996 1466
0 0 0 0 0 0 0 0 0 0 0 0 0 0 0 0 47 142 243 381 522 501 586 618 685 855 971 1303 1500 1502 1465 1462 1616 1710 1797 1928 2227 2252 2273 2406 2311 2136 1887 1387
0 1 0 0 0 0 0 0 0 0 0 0 0 0 0 47 151 393 398 466 384 513 638 614 731 1073 1386 1448 1416 1790 1721 1681 1661 1865 1942 2118 2384 2475 2513 2574 2330 2119 1718 1427
248 217 71 0 0 0 0 0 0 0 0 0 0 0 18 178 371 680 1017 1220 912 644 607 635 781 1132 1684 1663 1579 1754 1865 1928 1871 2215 2148 2479 2708 2777 2730 2301 2027 1668 1481 1309
304 375 330 95 7 14 9 0 0 0 4 0 0 9 60 176 618 1082 1268 1487 1665 1676 1442 782 730 841 1073 1694 1673 1698 1928 2115 2303 2584 2494 2842 2884 2743 2583 2140 1718 1500 1293 928
380 362 289 193 144 1 129 318 247 144 112 76 25 48 292 590 939 1102 810 1105 1360 1504 2065 1981 1391 828 1049 1389 1641 1721 1946 2367 2596 2739 2857 2886 2680 2456 1991 1888 1495 1327 727 512
256 111 89 121 21 152 98 180 220 175 73 90 214 375 497 747 905 501 312 587 1176 1050 1628 1806 1363 1081 1728 1679 1923 2232 2510 2663 2708 2824 2500 2243 1540 332 5 0 0 82 359 170
358 227 58 34 73 60 79 388 374 420 127 728 486 586 601 820 727 353 402 342 462 1301 1266 2185 2072 1866 2448 2539 2594 2806 2795 2762 2855 1900 1464 543 122 0 1 3 0 168 303 72
424 406 156 68 21 80 298 466 536 234 378 813 755 716 791 1000 781 476 399 344 540 874 1468 1775 2735 2712 2827 2830 2856 2990 2880 2455 1511 542 461 342 51 4 6 78 100 71 7 0
361 297 208 168 199 121 520 566 759 490 328 573 753 732 585 427 372 428 384 378 1447 941 1515 1613 2530 3111 3070 2984 2996 2446 2217 1513 784 718 542 156 61 10 0 166 11 0 1 0
278 363 575 451 489 572 661 341 201 119 218 231 192 363 403 373 246 438 305 680 1843 1726 1735 1593 2170 2685 2888 2822 2630 2272 1572 1203 1061 855 174 99 0 12 21 99 14 3 0 0
727 708 518 577 208 205 114 135 115 135 75 52 79 25 0 222 200 503 198 525 1527 2251 2254 2043 2409 2415 2355 2354 2224 1724 1265 1151 1052 948 513 33 4 326 170 90 50 4 1 0
629 502 653 506 358 143 236 194 75 23 0 21 46 155 94 28 93 302 123 325 963 2043 2293 2448 2404 2386 2449 2461 2064 1714 1453 1144 937 492 239 274 169 189 188 213 208 148 60 27
321 440 307 343 169 82 8 0 9 0 0 12 0 0 165 313 167 144 249 481 867 1973 2686 2201 1856 1795 2042 2207 2256 2117 1546 1096 665 404 319 213 264 147 122 28 0 0 2 0
CIN
0 0 0 0 0 0 0 0 0 0 -75 -112 -30 -37 -32 -48 -52 -13 -18 -23 -65 -100 -65 -35 -2 -2 -5 -19 -34 -49 -73 -82 -87 -85 -67 -48 -31 -14 -10 -9 -11 -17 -13 -19
0 0 0 0 0 0 0 0 0 0 -83 -89 -36 -38 -46 -71 -52 -38 -31 -21 -29 -80 -120 -77 -40 -6 -2 -15 -33 -48 -68 -81 -105 -62 -45 -29 -18 -8 -7 -4 -10 -12 -6 -4
0 0 0 0 0 0 0 0 0 0 -72 -82 -57 -10 -45 -76 -92 -79 -63 -37 -26 -64 -148 -137 -85 -54 -34 -17 -29 -46 -75 -77 -100 -74 -55 -51 -42 -34 -19 -7 -3 -2 -3 -11
0 0 0 0 0 0 0 0 0 0 -32 -6 -49 -8 -10 -50 -99 -111 -84 -61 -58 -58 -99 -174 -177 -108 -66 -58 -29 -39 -68 -82 -91 -88 -62 -55 -26 -9 -2 -2 -2 -9 -34 -19
0 0 0 0 0 0 0 0 0 0 0 0 -22 0 -1 -65 -45 -76 -94 -58 -67 -61 -74 -94 -148 -172 -120 -87 -69 -61 -58 -93 -95 -96 -76 -64 -60 -17 -10 -5 -35 -15 -21 -33
0 0 0 0 0 0 0 0 0 0 0 0 -88 0 0 0 0 -23 -59 -93 -102 -95 -74 -72 -79 -112 -140 -108 -75 -77 -76 -105 -122 -114 -120 -87 -49 -41 -17 -22 -34 -1 -1 -9
0 0 0 0 0 0 0 0 0 0 -2 0 -29 0 0 0 0 -73 -47 -97 -114 -126 -123 -81 -72 -88 -110 -108 -90 -96 -97 -94 -123 -127 -117 -112 -87 -67 -48 -36 -17 -3 -3 -6
0 0 0 0 0 0 0 0 0 0 0 0 -85 0 0 0 -137 -133 -85 -114 -131 -140 -123 -111 -94 -89 -97 -105 -112 -101 -97 -86 -114 -121 -120 -115 -105 -70 -62 -40 -11 -11 -5 -8
0 0 0 0 0 0 0 0 0 0 0 0 0 0 0 -41 -109 -107 -113 -117 -114 -123 -115 -99 -90 -89 -84 -101 -106 -108 -104 -98 -105 -112 -121 -128 -121 -100 -61 -41 -35 -20 -26 -16
0 0 0 0 0 0 0 0 0 0 0 0 0 0 0 0 -75 -67 -61 -68 -76 -108 -112 -94 -94 -74 -92 -89 -94 -101 -113 -96 -96 -106 -126 -129 -124 -122 -93 -56 -50 -41 -62 -50
0 0 0 0 0 0 0 0 0 0 0 0 0 0 0 0 -79 -52 -51 -39 -43 -52 -89 -81 -79 -73 -83 -87 -89 -83 -114 -103 -98 -106 -118 -123 -128 -124 -117 -84 -64 -50 -59 -42
0 0 0 0 0 0 0 0 0 0 0 0 0 0 0 -56 -95 -100 -86 -49 -54 -55 -67 -70 -66 -81 -83 -98 -96 -93 -97 -110 -110 -115 -139 -142 -135 -130 -114 -96 -63 -64 -55 -62
0 0 0 0 0 0 0 0 0 0 0 0 0 -1 0 0 -167 -187 -155 -116 -119 -111 -107 -120 -85 -88 -91 -93 -97 -121 -137 -133 -122 -133 -139 -125 -127 -129 -110 -93 -60 -63 -63 -85
0 0 0 0 0 0 0 0 0 0 0 0 0 0 0 0 -163 -165 -178 -179 -167 -133 -126 -129 -124 -102 -114 -146 -149 -170 -184 -181 -159 -144 -139 -122 -131 -125 -98 -73 -67 -66 -87 -126
0 -3 0 0 0 0 0 0 0 0 0 0 0 0 0 -99 -152 -170 -178 -151 -172 -124 -110 -107 -119 -126 -160 -186 -222 -235 -231 -225 -194 -185 -146 -139 -131 -122 -104 -86 -81 -62 -83 -79
-21 -7 -25 0 0 -1 0 0 0 0 0 0 0 0 -114 -113 -130 -143 -160 -178 -147 -136 -90 -76 -84 -101 -116 -173 -211 -246 -238 -223 -207 -202 -169 -174 -177 -167 -137 -162 -149 -151 -127 -106
-22 -6 -5 -8 -38 -37 -10 0 0 0 -10 0 0 -12 -56 -88 -113 -148 -151 -142 -166 -161 -166 -124 -93 -100 -77 -119 -195 -225 -250 -250 -222 -201 -186 -172 -181 -174 -168 -162 -142 -109 -97 -120
-16 -12 -15 -12 -20 -4 -27 -50 -43 -27 -26 -30 -36 -37 -57 -94 -101 -128 -209 -214 -177 -151 -144 -161 -147 -92 -100 -123 -139 -177 -228 -251 -236 -204 -151 -132 -131 -105 -72 -50 -36 -106 -155 -137
-4 -5 -6 -5 -17 -5 -8 -37 -45 -47 -7 -33 -30 -40 -61 -81 -57 -137 -279 -286 -240 -200 -178 -170 -178 -165 -147 -137 -167 -191 -220 -241 -208 -160 -177 -156 -210 -567 -157 0 0 -18 -144 -179
-3 -13 -17 -8 -4 -10 -7 -18 -55 -59 -16 -44 -54 -64 -79 -58 -16 -52 -233 -291 -286 -185 -200 -173 -189 -198 -185 -200 -198 -209 -205 -170 -133 -281 -389 -674 -846 0 -393 -143 0 -22 -73 -228
-5 -8 -4 -10 -24 -6 -66 -76 -75 -18 -50 -95 -93 -102 -87 -38 -115 -143 -171 -194 -206 -155 -130 -133 -95 -141 -157 -168 -149 -117 -135 -202 -390 -729 -700 -670 -736 -177 -213 -419 -106 -29 -172 0
-4 -6 -5 -4 -4 -3 -86 -70 -23 -106 -119 -133 -113 -116 -143 -161 -149 -130 -140 -127 -69 -95 -53 -56 -67 -58 -79 -105 -137 -222 -230 -365 -586 -522 -481 -574 -636 -796 0 -425 -503 0 0 0
-16 -4 -5 -4 -8 -83 -93 -77 -105 -128 -143 -150 -147 -119 -108 -108 -112 -113 -114 -74 -54 -64 -64 -73 -55 -128 -106 -99 -102 -122 -290 -386 -409 -395 -625 -532 0 -610 -652 -432 -513 -126 0 0
-45 -87 -13 -12 -10 -29 -57 -75 -88 -105 -113 -136 -130 -133 0 -100 -99 -61 -90 -80 -37 -30 -55 -81 -51 -85 -137 -142 -138 -182 -284 -292 -296 -286 -404 -609 -625 -383 -385 -405 -442 -409 -37 -55
-47 -89 -30 -16 -11 -17 -35 -55 -75 -101 -66 -70 -97 -109 -117 -134 -99 -68 -73 -81 -52 -22 -48 -58 -75 -79 -78 -87 -150 -179 -187 -251 -279 -374 -527 -433 -450 -357 -296 -228 -165 -90 -121 -114
-82 -32 -20 -6 -25 -53 -22 0 -29 0 0 -57 0 0 -106 -108 -113 -70 -67 -66 -65 -23 -39 -86 -148 -160 -117 -86 -64 -77 -146 -203 -265 -312 -444 -422 -320 -338 -286 -324 0 0 -27 0
Wind_Speed
19 21 20 18 15 13 13 14 16 20 16 11 10 10 11 12 19 22 23 24 23 24 25 26 27 26 25 25 25 26 26 25 22 19 18 18 18 17 18 17 15 13 11 9
21 24 23 20 17 14 12 12 16 13 12 11 9 7 10 13 17 21 23 23 23 22 23 25 27 26 26 25 26 24 23 21 21 21 21 20 20 19 19 17 13 11 10 8
26 20 20 21 20 16 13 11 13 16 14 13 8 13 20 13 15 18 20 21 20 20 23 24 28 27 27 26 24 24 22 22 21 22 19 18 19 18 14 13 12 12 13 13
29 29 19 19 18 19 17 12 10 10 12 18 12 18 19 17 14 17 19 18 20 21 22 23 27 28 28 27 25 24 21 19 19 18 17 18 18 15 10 11 15 18 15 14
25 10 18 26 23 20 20 18 13 11 12 12 13 12 15 16 11 12 20 20 23 20 20 19 23 27 27 27 26 24 21 18 18 17 18 16 18 14 11 9 12 11 14 13
30 13 20 17 21 11 22 19 15 11 12 13 17 16 8 21 21 12 17 26 24 20 19 21 22 23 24 25 22 22 22 21 18 18 18 20 18 15 12 9 9 10 12 13
18 20 12 14 1 2 5 20 20 17 14 16 11 12 14 5 16 11 13 19 22 21 22 19 20 21 23 24 22 21 23 24 22 19 19 20 18 14 11 11 8 10 11 12
24 24 10 7 9 5 13 22 26 24 22 21 15 12 14 11 8 13 13 15 18 22 23 23 23 23 21 24 24 23 23 24 22 21 21 19 16 13 12 10 8 9 11 12
20 24 18 21 8 8 3 13 26 28 26 23 21 21 12 15 11 14 14 14 14 18 23 23 22 22 22 22 25 23 21 21 21 21 18 17 14 14 12 7 6 8 11 12
21 26 18 14 14 17 28 25 15 19 29 27 18 22 16 20 19 15 14 13 15 19 21 21 22 21 22 22 22 21 21 20 20 20 18 17 14 12 9 6 5 6 8 10
21 23 17 15 16 14 14 15 23 30 25 27 26 17 14 18 18 18 13 14 13 14 17 20 21 22 20 20 21 20 18 18 19 18 18 18 15 13 10 9 7 6 8 9
16 22 26 22 15 20 19 21 19 19 33 27 26 20 15 16 18 18 16 15 13 10 11 13 16 20 22 21 20 21 18 17 16 16 16 15 12 10 10 9 7 7 7 7
12 21 25 23 19 21 23 22 24 27 27 24 21 14 13 17 19 20 19 18 15 9 8 5 6 13 18 20 19 18 18 18 15 13 13 12 10 9 8 6 5 5 5 6
18 25 25 27 26 22 19 21 21 21 17 23 21 27 17 21 23 23 23 22 21 15 5 4 6 3 13 16 18 17 18 18 17 15 12 10 10 7 4 4 4 4 3 4
19 25 23 28 27 26 26 23 18 19 26 20 17 21 24 24 25 25 26 26 26 23 12 4 5 7 8 14 16 16 17 15 14 13 9 6 4 2 2 2 3 1 2 4
20 25 23 24 23 24 25 23 18 19 20 22 23 27 22 26 26 24 23 24 24 26 25 13 6 11 9 2 5 8 9 11 10 8 7 5 6 6 6 5 5 4 2 3
24 24 23 25 20 21 24 20 19 18 20 22 24 21 26 26 25 24 25 25 25 25 27 27 23 17 17 7 1 4 5 6 5 5 7 7 7 6 5 4 4 4 5 4
24 26 25 29 20 25 17 16 21 23 22 21 24 24 25 26 21 21 21 23 24 24 26 27 30 24 17 12 4 1 1 3 5 4 3 2 3 6 9 8 12 9 6 5
21 28 29 29 31 29 22 20 21 23 21 22 24 24 24 22 18 19 22 24 25 26 25 25 24 21 22 15 7 5 2 1 1 1 1 2 3 4 7 21 52 39 7 4
22 25 29 31 34 35 35 14 17 18 23 23 21 24 24 21 24 19 24 25 26 26 26 25 23 18 14 12 9 6 3 3 5 4 5 4 2 6 21 40 55 11 6 4
18 23 28 29 36 33 21 20 20 26 23 21 22 22 23 19 21 24 24 26 26 25 25 24 20 18 14 9 7 6 5 4 1 3 3 2 4 10 24 21 15 9 9 2
25 26 27 26 30 32 20 17 25 22 24 23 23 23 23 22 23 23 25 26 26 24 23 22 19 17 15 12 8 7 7 4 1 1 2 10 15 14 10 10 13 10 5 2
23 23 25 22 21 16 17 19 20 21 23 25 27 28 26 26 26 25 25 26 25 24 22 21 19 18 16 14 12 10 6 2 2 3 9 21 14 11 7 8 8 12 8 7
21 21 22 23 18 21 18 17 19 20 23 26 26 28 28 28 28 28 27 26 25 23 23 22 21 18 17 15 13 10 7 7 7 8 12 14 11 10 6 7 9 11 10 7
20 19 20 25 24 21 15 20 22 23 24 24 25 27 28 27 26 25 23 24 23 21 19 20 19 19 18 16 13 11 9 11 14 15 14 17 12 5 4 7 7 8 7 2
21 20 18 20 23 23 27 26 25 30 30 28 28 29 28 27 26 23 21 23 23 22 18 18 17 17 17 16 15 13 12 11 14 17 17 13 4 3 3 5 5 8 5 4
Wind_Direction
168 182 176 172 166 174 194 232 261 302 304 165 151 96 91 125 154 157 157 157 154 159 159 160 166 165 163 166 165 168 168 165 148 139 135 140 152 150 175 190 195 184 172 157
178 192 195 196 188 185 190 209 268 337 253 149 125 130 121 137 155 160 161 158 157 156 158 162 167 168 169 167 169 163 163 153 156 157 157 156 165 170 214 202 164 157 145 148
197 219 210 183 197 188 188 191 237 264 230 138 219 81 46 87 148 162 166 165 158 152 160 162 169 171 173 171 166 168 165 162 160 163 153 152 173 190 150 135 117 78 80 81
219 211 184 178 181 198 196 158 188 198 190 279 241 287 40 54 135 165 172 167 165 160 159 163 172 174 176 176 174 174 167 162 160 154 153 158 165 157 103 59 354 338 42 65
259 312 182 202 197 216 213 222 207 194 202 218 77 205 59 73 117 148 171 173 172 164 162 159 165 172 176 176 176 175 168 162 161 156 160 155 166 157 136 51 28 44 33 67
259 316 288 224 194 169 275 207 195 181 195 206 351 257 170 0 18 63 152 174 169 167 165 167 166 166 169 171 169 169 168 169 161 159 162 167 162 156 141 99 63 62 56 61
286 285 294 301 343 127 141 202 221 208 188 237 62 211 214 160 333 75 122 154 166 165 167 164 167 166 167 171 169 169 170 173 167 165 166 170 167 153 141 134 102 58 49 60
276 278 268 281 193 178 175 200 226 265 256 279 18 164 238 225 176 101 82 129 158 169 169 171 168 170 166 171 173 173 173 173 169 167 171 170 165 157 155 138 103 72 42 42
283 279 301 289 267 206 205 181 231 256 257 265 298 304 232 63 118 117 124 140 141 155 165 164 164 167 168 170 174 173 170 168 168 169 166 167 163 166 155 129 83 52 18 21
285 280 298 301 292 279 264 280 295 202 257 268 313 299 316 314 338 75 109 114 116 145 155 159 165 162 167 169 170 171 171 171 171 171 170 169 166 161 151 125 96 68 56 63
275 279 293 295 279 282 270 269 276 262 275 275 284 321 325 317 333 341 24 4 75 103 138 158 165 169 166 167 170 170 168 170 171 170 169 167 163 157 148 145 128 104 85 77
272 281 273 279 295 281 278 275 273 282 253 276 279 301 332 323 323 333 323 317 0 34 106 136 155 171 174 172 172 173 169 170 168 166 165 165 160 154 150 148 132 120 103 82
289 277 275 277 279 278 274 274 270 271 274 272 282 312 342 327 318 310 309 306 326 7 22 61 115 155 170 175 174 174 175 175 170 170 169 167 163 159 156 143 129 120 95 78
289 276 273 274 276 277 265 273 272 271 280 281 281 275 320 316 310 301 294 300 305 323 355 8 337 51 151 170 177 176 178 178 175 174 174 171 168 160 146 138 140 135 111 94
290 279 280 272 278 275 271 270 268 267 271 283 302 285 299 308 306 306 299 292 290 298 324 0 327 314 158 174 177 176 175 171 169 168 168 172 166 157 156 159 162 181 307 324
288 281 283 276 279 272 270 268 266 268 278 282 291 290 298 301 303 309 312 308 301 286 285 310 328 308 314 328 163 167 168 164 161 164 168 167 166 170 173 178 183 191 202 293
277 279 276 271 276 275 269 264 263 269 277 281 288 304 298 297 301 305 306 309 305 295 275 274 292 297 294 302 234 161 159 154 161 169 165 172 180 186 196 202 219 243 259 256
275 273 274 268 278 265 283 280 271 272 280 284 291 300 304 298 309 311 315 315 317 313 289 278 264 288 298 292 270 242 193 159 163 169 191 272 304 317 320 320 314 244 240 227
280 271 269 267 262 263 278 280 275 275 285 285 290 303 311 310 308 309 315 315 314 312 312 300 296 302 296 291 290 296 316 79 131 140 120 109 90 48 337 311 310 279 230 254
279 278 269 265 263 264 260 289 285 287 278 301 298 304 312 313 294 305 313 313 314 316 318 317 308 313 317 301 304 301 324 88 107 111 115 110 99 327 318 321 314 258 259 293
282 278 269 270 263 265 286 285 282 272 281 301 301 307 312 314 311 309 311 308 311 316 320 321 322 312 319 321 318 316 315 313 38 109 109 358 315 313 336 0 10 266 288 296
277 279 273 273 271 264 290 295 276 284 288 299 300 305 306 311 309 309 306 308 307 309 319 326 331 330 325 323 320 305 304 298 241 236 283 326 331 340 5 67 79 123 131 130
284 281 280 282 291 300 301 296 299 299 296 298 293 293 296 298 298 301 304 306 311 309 311 319 327 333 332 333 331 325 318 296 244 289 308 316 342 4 54 43 64 111 118 116
283 289 281 284 292 289 297 305 305 299 300 300 297 293 292 291 291 295 299 305 310 309 302 307 314 322 328 331 333 332 320 317 313 314 317 326 343 357 34 50 90 114 126 117
282 292 289 276 281 288 295 294 297 296 298 303 305 304 297 292 291 296 300 303 306 313 313 309 313 317 322 328 329 332 327 315 308 313 322 321 336 357 44 76 87 112 122 55
280 288 289 285 295 288 280 290 294 288 288 295 303 306 306 301 292 292 301 300 302 303 313 317 321 320 323 326 326 329 324 320 308 312 319 327 4 38 68 84 43 6 19 19